Location: Poughquag
(41.6090°N, 73.6820°W)
Time: 12:53:19
(UTC-04:00)

Tiros 1 despin weight - Pass Details

Date: 31 May 2020
Orbit: 593 x 642 km, 48.2° (Epoch: 07 July)

Event Time Altitude Azimuth Distance (km) Brightness Sun altitude
Rises 14:27:11 0° 290° (WNW) 2,898 ? 62.1°
Reaches altitude 10° 14:29:39 10° 299° (WNW) 1,983 ? 61.8°
Maximum altitude 14:33:54 37° 8° (N) 951 ? 61.1°
Drops below altitude 10° 14:38:05 10° 76° (ENE) 1,952 ? 60.5°
Sets 14:40:30 0° 85° (E) 2,846 ? 60.1°
